Location: Anankanda
(14.7841°N, 3.0348°W)
Time: 20:03:37
(UTC+00:00)

Daily predictions for brighter satellites

Satellite Brightness Start Highest point End
(mag) Time Altitude Azimuth Time Altitude Azimuth Time Altitude Azimuth
SMAP 4.4 18:19:24 10° S 18:23:52 47° W 18:28:19 10° NNW
OAO 2 Rocket 3.7 18:20:38 10° SW 18:25:23 51° SE 18:30:10 10° ENE
Cosmos 1939 Rocket 4.4 18:25:47 10° ESE 18:27:57 15° ENE 18:30:07 10° NE
ASTRO E2 3.7 18:24:56 10° NW 18:28:24 29° NNE 18:31:53 10° E
Cosmos 1812 Rocket 3.6 18:24:03 10° N 18:28:31 79° E 18:32:59 10° S
Cosmos 2227 Rocket 3.7 18:28:25 10° SW 18:33:39 39° WNW 18:38:54 10° N
Cosmos 2263 Rocket 3.9 18:35:16 10° SE 18:37:47 13° ESE 18:40:06 11° ENE
Cosmos-2242 3.7 18:36:28 10° NNE 18:40:17 31° E 18:44:03 10° SSE
Cosmos 1461 3.1 18:36:13 10° NNW 18:40:42 67° ENE 18:45:17 10° SSE
Cosmos 1048 Rocket 4.1 18:36:07 10° NNW 18:41:12 79° WSW 18:46:19 10° S
Cosmos 1959 Rocket 4.5 18:37:11 10° S 18:43:25 81° E 18:49:35 10° N
ADEOS Rocket 3.6 18:36:58 10° NNE 18:43:56 56° ESE 18:51:25 10° S
Centaur AC-112 3.8 18:43:28 10° NNW 18:44:29 12° N 18:45:42 10° NNE
Cosmos 1703 3.2 18:41:24 10° S 18:45:19 81° E 18:49:16 10° N
SWIFT 2.7 18:43:36 10° W 18:47:43 53° N 18:50:55 16° ENE
Cosmos 2219 Rocket 2.6 18:43:47 10° NNW 18:49:23 70° WSW 18:54:58 10° S
OAO 3 Rocket 3.1 18:45:32 10° SW 18:50:10 88° SE 18:53:53 16° ENE
Cosmos 1953 Rocket 4.2 18:46:15 10° SSW 18:50:38 60° W 18:55:03 10° N
Meteor 2-1 Rocket 4.4 18:48:45 10° N 18:54:16 78° W 18:59:53 10° S
Cosmos 2366 rocket 4.1 18:48:29 10° S 18:54:38 83° W 19:00:51 10° N
COSMOS 2428 3.3 18:50:35 10° NNW 18:56:13 62° WSW 19:01:51 10° S
CZ-4 R/B 1.3 18:53:18 10° SSE 18:57:14 88° ENE 19:01:14 10° N
Ariane Rocket 4.2 18:55:08 10° ESE 18:58:38 19° ENE 19:02:09 10° NNE
GPS 2-05 Rocket1 2.3 18:57:19 10° SW 18:59:48 51° SE 19:00:36 33° E
Intelsat 5-2 Rocket 2.9 18:59:59 10° WSW 19:02:47 70° SSE 19:06:12 21° ENE
Okean-O 4.5 18:58:48 10° SSW 19:02:49 34° W 19:06:50 10° NW
Chunghua 1 4.3 19:00:03 10° NW 19:03:42 70° NE 19:06:03 20° ESE
Palapa 6 Rocket 4.4 18:58:33 10° WNW 19:06:00 71° NNE 19:12:05 19° E
CSL-04 Debris 4.1 19:02:00 10° SSE 19:07:20 71° ENE 19:12:42 10° N
NOSS 3-2 (A) 4.0 19:04:32 10° S 19:09:15 30° ESE 19:11:09 25° ENE
GPS 2-18 Rocket1 3.3 19:07:37 10° WNW 19:11:16 51° NNE 19:12:27 35° ENE
Cosmos 494 Rocket 4.2 19:08:36 10° NNW 19:13:40 70° WSW 19:18:46 10° S
Atlas Centaur 2 3.7 19:11:09 10° WNW 19:15:00 22° N 19:17:49 16° NNE
CZ-2D R/B 3.1 19:12:01 10° SSE 19:15:48 82° ENE 19:19:35 10° N
Meteor 2-10 Rocket 3.4 19:11:12 10° N 19:16:18 65° E 19:21:15 10° SSE
GPS 2-12 Rocket1 3.1 19:14:34 10° WNW 19:19:22 71° NNE 19:21:13 36° E
CENTAUR R/B 4.1 19:18:05 10° SE 19:18:46 11° SE 19:18:46 11° SE
CZ-4C R/B 3.1 19:14:53 10° NNW 19:23:02 81° ENE 19:31:30 10° SSE
Meteor 2-12 Rocket 4.4 19:17:33 10° S 19:23:37 87° W 19:29:39 10° N
NOSS 0 Rocket 4.2 19:18:58 10° NNW 19:25:06 70° WSW 19:31:12 10° S
GPS 2-14 Rocket1 3.9 19:23:00 10° SW 19:26:29 29° SSE 19:27:06 28° SE
Fermi 4.0 19:23:49 10° SW 19:27:47 51° SSE 19:28:23 46° SE
USA 234 3.2 19:22:38 10° SE 19:29:12 87° SW 19:35:44 10° NW
Atlas 2A Centaur Rocket 3.1 19:24:33 10° W 19:32:18 33° NNW 19:33:23 27° N
CSL-04 Rocket 4.2 19:29:04 10° S 19:34:22 59° WSW 19:39:45 10° NNW
Cosmos 1727 Rocket 3.8 19:32:09 10° N 19:38:18 73° E 19:44:27 10° S
IRS-1A Rocket 4.4 19:33:35 10° SSE 19:39:16 53° ENE 19:44:52 10° N
H-2A ROCKET BODY 3.6 19:39:13 10° NW 19:40:39 12° NNW 19:40:39 12° NNW
Cosmos 2237 Rocket 2.4 19:36:02 10° NNW 19:41:36 71° WSW 19:47:11 10° S
Ariane H10+ 4.2 19:40:06 10° SSW 19:43:21 18° SSE 19:44:59 17° SE
USA 238 DEB 3.5 19:38:46 10° SSW 19:45:23 86° ESE 19:48:10 38° NNE
USA 238 3.5 19:38:54 10° SSW 19:45:30 85° ESE 19:48:13 39° NNE
Cosmos 2227 4.3 19:40:09 10° SSW 19:45:53 74° WNW 19:48:54 29° N
In-Cosmos 22 Rocket 4.4 19:43:26 10° S 19:48:37 53° ESE 19:48:37 53° ESE
Cosmos 1455 4.1 19:46:09 10° NNW 19:49:24 28° W 19:52:40 10° SSW
FALCON 9 R/B 4.0 19:31:35 10° WSW 19:51:17 41° NW 19:55:01 25° NNE
Delta 7925 Rocket 4.1 19:54:17 10° WNW 20:01:40 69° SSW 20:02:54 55° SSE
Cosmos 1371 Rocket 4.1 20:00:23 10° SSW 20:05:28 70° W 20:05:28 70° W
USA 215 3.7 20:15:45 46° SSE 20:15:45 46° SSE 20:20:52 10° SSW
Cosmos 2263 Rocket 3.1 20:16:03 10° SW 20:21:16 43° WNW 20:21:52 41° NW
Centaur AC-42 4.2 19:58:06 10° WSW 20:28:53 39° S 20:30:35 36° SSE
Aurora 2 Rocket 4.2 20:21:31 10° WNW 20:29:59 59° NNW 20:29:59 59° NNW
ATLAS 3B R/B 4.1 20:40:32 10° SSW 20:43:23 27° S 20:43:23 27° S
